Weather History for Greenville, NC

Change the Weather History Date:

Monday, April 22, 2013

  Actual Average Record
Temperature  
Mean Temperature 48 °F -  
Max Temperature 59 °F 74 °F 95 °F (1985)
Min Temperature 37 °F 48 °F 33 °F (1981)
Degree Days  
Heating Degree Days 17    
Moisture  
Dew Point 43 °F    
Average Humidity 83    
Maximum Humidity 100    
Minimum Humidity 55    
Precipitation  
Precipitation 0.21 in - - ()
Sea Level Pressure  
Sea Level Pressure 30.34 in    
Wind  
Wind Speed 11 mph (NNE)    
Max Wind Speed 21 mph    
Max Gust Speed 26 mph    
Visibility 8 miles    
Events Rain    
Averages and records for this station are not official NWS values.
T = Trace of Precipitation, MM = Missing Value Source: NWS Daily Summary

Daily Weather History Graph

Daily Weather History Graph

Search for Another Location

Airport:

Trip Planner

Search our weather history database for the weather conditions in past years. The results will help you decide how hot, cold, wet, or windy it might be!

Date:

Astronomy

Apr. 22, 2013 Rise Set
Actual Time 6:27 AM EDT 7:48 PM EDT
Civil Twilight 6:01 AM EDT 8:15 PM EDT
Nautical Twilight 5:29 AM EDT 8:47 PM EDT
Astronomical Twilight 4:55 AM EDT 9:21 PM EDT
Moon 4:41 PM EDT 4:14 AM EDT
Length of Visible Light 14h 14m
Length of Day
13h 21m
Waxing Gibbous, 87% of the Moon is Illuminated
Apr 22
Waxing Gibbous
Apr 25
Full
May 2
Last Quarter
May 9
New
May 18
First Quarter

Hourly Weather History & Observations

Time (EDT) Temp. Windchill Dew Point Humidity Pressure Visibility Wind Dir Wind Speed Gust Speed Precip Events Conditions
12:15 AM 42.8 °F 38.0 °F 35.6 °F 76% 30.48 in 10.0 mi NNE 8.1 mph - N/A   Clear
12:35 AM 41.0 °F 36.4 °F 35.6 °F 81% 30.49 in 10.0 mi NNE 6.9 mph - N/A   Clear
12:55 AM 41.0 °F 35.8 °F 35.6 °F 81% 30.48 in 10.0 mi North 8.1 mph - N/A   Clear
1:15 AM 39.2 °F 33.6 °F 35.6 °F 87% 30.46 in 10.0 mi North 8.1 mph - N/A   Clear
1:35 AM 39.2 °F 33.6 °F 35.6 °F 87% 30.46 in 10.0 mi North 8.1 mph - N/A   Clear
1:55 AM 37.4 °F 31.4 °F 35.6 °F 93% 30.45 in 10.0 mi North 8.1 mph - N/A   Clear
2:15 AM 37.4 °F 32.1 °F 35.6 °F 93% 30.45 in 10.0 mi North 6.9 mph - N/A   Clear
2:35 AM 37.4 °F 33.8 °F 35.6 °F 93% 30.45 in 10.0 mi North 4.6 mph - N/A   Clear
2:55 AM 37.4 °F 32.1 °F 35.6 °F 93% 30.44 in 10.0 mi North 6.9 mph - N/A   Clear
3:15 AM 37.4 °F 31.4 °F 35.6 °F 93% 30.43 in 10.0 mi North 8.1 mph - N/A   Clear
3:35 AM 37.4 °F 32.1 °F 35.6 °F 93% 30.42 in 10.0 mi North 6.9 mph - N/A   Clear
3:55 AM 37.4 °F 31.4 °F 33.8 °F 87% 30.41 in 10.0 mi NNE 8.1 mph - N/A   Clear
4:15 AM 37.4 °F 32.1 °F 33.8 °F 87% 30.42 in 10.0 mi NNE 6.9 mph - N/A   Clear
4:35 AM 37.4 °F 32.1 °F 33.8 °F 87% 30.42 in 10.0 mi NNE 6.9 mph - N/A   Scattered Clouds
4:55 AM 37.4 °F 32.1 °F 33.8 °F 87% 30.41 in 10.0 mi NNE 6.9 mph - N/A   Scattered Clouds
5:15 AM 39.2 °F 33.0 °F 35.6 °F 87% 30.40 in 10.0 mi NNE 9.2 mph - N/A   Scattered Clouds
5:55 AM 37.4 °F 32.1 °F 33.8 °F 87% 30.40 in 10.0 mi NNE 6.9 mph - N/A   Scattered Clouds
6:15 AM 37.4 °F 31.4 °F 33.8 °F 87% 30.40 in 10.0 mi North 8.1 mph - N/A   Clear
6:35 AM 37.4 °F 32.1 °F 35.6 °F 93% 30.39 in 10.0 mi NNE 6.9 mph - N/A   Clear
6:55 AM 37.4 °F 31.4 °F 35.6 °F 93% 30.40 in 10.0 mi North 8.1 mph - N/A   Clear
7:15 AM 41.0 °F 34.3 °F 35.6 °F 81% 30.39 in 10.0 mi NNE 11.5 mph - N/A   Clear
7:35 AM 41.0 °F 34.7 °F 37.4 °F 87% 30.40 in 10.0 mi NNE 10.4 mph 16.1 mph N/A   Clear
7:55 AM 42.8 °F 36.6 °F 37.4 °F 81% 30.39 in 10.0 mi NNE 11.5 mph - N/A   Clear
8:15 AM 44.6 °F 39.2 °F 39.2 °F 81% 30.39 in 10.0 mi NNE 10.4 mph - N/A   Clear
8:35 AM 44.6 °F 38.8 °F 39.2 °F 81% 30.39 in 10.0 mi NNE 11.5 mph - N/A   Scattered Clouds
8:55 AM 44.6 °F 38.8 °F 41.0 °F 87% 30.38 in 10.0 mi NNE 11.5 mph 18.4 mph N/A   Scattered Clouds
9:15 AM 46.4 °F 41.5 °F 41.0 °F 81% 30.38 in 10.0 mi NE 10.4 mph 19.6 mph N/A   Scattered Clouds
9:35 AM 46.4 °F 41.5 °F 41.0 °F 81% 30.38 in 10.0 mi NNE 10.4 mph 20.7 mph N/A   Mostly Cloudy
9:55 AM 50.0 °F - 42.8 °F 76% 30.37 in 10.0 mi NNE 10.4 mph 17.3 mph N/A   Mostly Cloudy
10:15 AM 51.8 °F - 42.8 °F 71% 30.37 in 10.0 mi NNE 12.7 mph 17.3 mph N/A   Overcast
10:35 AM 51.8 °F - 42.8 °F 71% 30.37 in 10.0 mi NNE 15.0 mph 19.6 mph N/A   Mostly Cloudy
10:55 AM 53.6 °F - 44.6 °F 72% 30.37 in 10.0 mi North 16.1 mph 19.6 mph N/A   Mostly Cloudy
11:15 AM 55.4 °F - 44.6 °F 67% 30.37 in 10.0 mi NNE 17.3 mph - N/A   Mostly Cloudy
11:35 AM 55.4 °F - 44.6 °F 67% 30.36 in 10.0 mi NE 13.8 mph 21.9 mph N/A   Overcast
11:55 AM 59.0 °F - 44.6 °F 59% 30.36 in 10.0 mi NNE 15.0 mph 23.0 mph N/A   Overcast
12:15 PM 59.0 °F - 44.6 °F 59% 30.36 in 10.0 mi NNE 16.1 mph 19.6 mph N/A   Overcast
12:35 PM 59.0 °F - 44.6 °F 59% 30.35 in 10.0 mi NNE 15.0 mph 20.7 mph N/A   Overcast
12:55 PM 59.0 °F - 44.6 °F 59% 30.33 in 10.0 mi NE 17.3 mph 25.3 mph N/A   Overcast
1:15 PM 59.0 °F - 44.6 °F 59% 30.33 in 10.0 mi NNE 13.8 mph 21.9 mph N/A   Overcast
1:35 PM 59.0 °F - 42.8 °F 55% 30.32 in 10.0 mi NE 15.0 mph 23.0 mph N/A   Overcast
1:55 PM 59.0 °F - 44.6 °F 59% 30.32 in 10.0 mi NE 15.0 mph 20.7 mph N/A   Overcast
2:15 PM 59.0 °F - 44.6 °F 59% 30.31 in 10.0 mi NE 20.7 mph - N/A   Overcast
2:35 PM 59.0 °F - 44.6 °F 59% 30.30 in 10.0 mi NE 13.8 mph 25.3 mph N/A   Overcast
2:55 PM 59.0 °F - 44.6 °F 59% 30.29 in 10.0 mi NNE 16.1 mph 25.3 mph N/A   Overcast
3:15 PM 57.2 °F - 46.4 °F 67% 30.28 in 10.0 mi NE 17.3 mph 25.3 mph N/A   Overcast
3:35 PM 57.2 °F - 46.4 °F 67% 30.27 in 10.0 mi NNE 19.6 mph 26.5 mph N/A   Overcast
3:55 PM 57.2 °F - 46.4 °F 67% 30.27 in 10.0 mi NNE 19.6 mph 25.3 mph N/A   Overcast
4:15 PM 55.4 °F - 48.2 °F 77% 30.27 in 7.0 mi NNE 12.7 mph 17.3 mph N/A Rain Light Rain
4:35 PM 53.6 °F - 50.0 °F 88% 30.28 in 10.0 mi NNE 16.1 mph 23.0 mph N/A   Overcast
4:55 PM 51.8 °F - 50.0 °F 94% 30.28 in 4.0 mi North 12.7 mph - N/A   Light Drizzle
5:15 PM 51.8 °F - 50.0 °F 94% 30.28 in 4.0 mi NNE 12.7 mph - 0.01 in Rain Rain
5:35 PM 51.8 °F - 50.0 °F 94% 30.27 in 5.0 mi NNE 12.7 mph - 0.02 in   Overcast
5:55 PM 51.8 °F - 50.0 °F 94% 30.27 in 5.0 mi NNE 20.7 mph 26.5 mph 0.02 in   Overcast
6:15 PM 51.8 °F - 50.0 °F 94% 30.27 in 7.0 mi NNE 16.1 mph 23.0 mph N/A   Overcast
6:35 PM 51.8 °F - 50.0 °F 94% 30.26 in 5.0 mi NNE 13.8 mph 21.9 mph N/A   Overcast
6:55 PM 51.8 °F - 50.0 °F 94% 30.26 in 5.0 mi NNE 13.8 mph 25.3 mph N/A   Overcast
7:15 PM 51.8 °F - 50.0 °F 94% 30.26 in 5.0 mi NNE 18.4 mph 25.3 mph N/A   Overcast
7:35 PM 50.0 °F - 50.0 °F 100% 30.26 in 3.0 mi NNE 15.0 mph 18.4 mph N/A Rain Light Rain
7:55 PM 50.0 °F - 50.0 °F 100% 30.26 in 5.0 mi NNE 12.7 mph 21.9 mph N/A   Overcast
8:15 PM 50.0 °F - 50.0 °F 100% 30.26 in 7.0 mi NNE 15.0 mph 20.7 mph 0.01 in Rain Light Rain
8:35 PM 50.0 °F - 50.0 °F 100% 30.26 in 7.0 mi NNE 13.8 mph 19.6 mph 0.01 in   Drizzle
8:55 PM 50.0 °F - 50.0 °F 100% 30.26 in 4.0 mi NNE 11.5 mph 24.2 mph 0.02 in   Drizzle
9:15 PM 50.0 °F - 50.0 °F 100% 30.26 in 5.0 mi NNE 12.7 mph 20.7 mph 0.02 in   Drizzle
9:35 PM 50.0 °F - 50.0 °F 100% 30.26 in 5.0 mi NNE 10.4 mph 18.4 mph 0.03 in   Drizzle
9:55 PM 50.0 °F - 50.0 °F 100% 30.27 in 5.0 mi NNE 12.7 mph 18.4 mph 0.08 in Rain Light Rain
10:15 PM 50.0 °F - 50.0 °F 100% 30.27 in 7.0 mi NNE 10.4 mph - 0.01 in Rain Rain
10:35 PM 50.0 °F - 48.2 °F 94% 30.27 in 7.0 mi NNE 11.5 mph - 0.03 in Rain Light Rain
10:55 PM 50.0 °F - 48.2 °F 94% 30.26 in 7.0 mi NNE 11.5 mph - 0.04 in Rain Light Rain
11:15 PM 50.0 °F - 48.2 °F 94% 30.26 in 7.0 mi NNE 12.7 mph 19.6 mph N/A   Overcast
11:35 PM 50.0 °F - 48.2 °F 94% 30.26 in 5.0 mi NNE 12.7 mph - 0.01 in Rain Rain
11:55 PM 50.0 °F - 48.2 °F 94% 30.25 in 5.0 mi NNE 12.7 mph 16.1 mph 0.05 in Rain Light Rain